This is the latest recevied weather packets stored in our database for station/object DC4THF-13. If no packets are shown the sender has not sent any weather packets the latest 10 day(s).
| Time | Temp. | Humidity | Pressure | Rain* | Wind** | Luminosity | Snow |
|---|---|---|---|---|---|---|---|
| 1777735340 | 28.33° C | 15% | 1010.8 hPa | 0 mm | - | - | - |
| 1777734737 | 28.33° C | 15% | 1010.8 hPa | 0 mm | - | - | - |
| 1777734194 | 28.33° C | 14% | 1010.9 hPa | 0 mm | - | - | - |
| 1777733591 | 28.89° C | 14% | 1011.2 hPa | 0 mm | - | - | - |
| 1777732988 | 28.33° C | 14% | 1011.2 hPa | 0 mm | - | - | - |
| 1777732385 | 28.33° C | 14% | 1011.4 hPa | 0 mm | - | - | - |
| 1777731781 | 27.78° C | 14% | 1011.6 hPa | 0 mm | - | - | - |
| 1777731178 | 27.78° C | 14% | 1011.6 hPa | 0 mm | - | - | - |
| 1777730575 | 27.78° C | 14% | 1011.8 hPa | 0 mm | - | - | - |
| 1777729972 | 27.78° C | 13% | 1011.8 hPa | 0 mm | - | - | - |
| 1777729369 | 27.78° C | 14% | 1011.9 hPa | 0 mm | - | - | - |
| 1777728766 | 27.78° C | 13% | 1012.1 hPa | 0 mm | - | - | - |
| 1777727559 | 27.78° C | 20% | 1012.5 hPa | 0 mm | - | - | - |
| 1777726955 | 27.22° C | 21% | 1012.6 hPa | 0 mm | - | - | - |
| 1777726351 | 27.78° C | 20% | 1012.9 hPa | 0 mm | - | - | - |
| 1777725747 | 27.22° C | 21% | 1013 hPa | 0 mm | - | - | - |
| 1777725143 | 27.22° C | 21% | 1013.2 hPa | 0 mm | - | - | - |
| 1777724540 | 26.67° C | 21% | 1013.4 hPa | 0 mm | - | - | - |
| 1777723936 | 27.22° C | 22% | 1013.4 hPa | 0 mm | - | - | - |
| 1777723393 | 26.67° C | 22% | 1013.5 hPa | 0 mm | - | - | - |
| 1777722789 | 27.22° C | 23% | 1013.9 hPa | 0 mm | - | - | - |
| 1777722186 | 26.11° C | 22% | 1014 hPa | 0 mm | - | - | - |
| 1777721583 | 26.67° C | 22% | 1014.2 hPa | 0 mm | - | - | - |
| 1777720980 | 26.67° C | 22% | 1014.3 hPa | 0 mm | - | - | - |
| 1777720377 | 26.11° C | 23% | 1014.5 hPa | 0 mm | - | - | - |
* Rain latest hour (hover to see other rain measurements)
** Current wind speed in m/s (hover to see current wind gust speed)